User: anonymous   Login
Location: Unspecified
(0.0000°N, 0.0000°E)
Time: 21:22:26
(UTC+00:00)
Language:

STARLINK-3606 - Orbit

View from above orbital plane
View from above orbital plane
View from above satellite
View from above satellite

Ground track
Ground track

The orbit is defined by the following mean orbital elements,

1 51807U          26145.27901080 +.00000000 +00000-0 +27465-4 0 00007
2 51807  53.2119 355.2944 0001063  86.4812 273.6301 15.08832316    04
Epoch (UTC): 25 May 2026 06:41:46
Eccentricity: 0.0001063
inclination: 53.2119°
perigee height: 539 km
apogee height: 541 km
right ascension of ascending node: 355.2944°
argument of perigee: 86.4812°
revolutions per day: 15.08832316
mean anomaly at epoch: 273.6301°

The dashed part of the orbit path shows where the satellite is in the earth's shadow,  

DLR